Overview Statistics Trail Chart Weather Telemetry Raw packets
 

This is the latest recevied weather packets stored in our database for station/object SV9TNF-52. If no packets are shown the sender has not sent any weather packets the latest 10 day(s).

<< 86 87 88 89 90 91 92 >>
Time Temp. Humidity Pressure Rain* Wind** Luminosity Snow
1788044823 22.22° C 64% 1021 hPa 0 mm 5.81 m/s, 214° - -
1788044523 22.78° C 62% 1021 hPa 0 mm 4.92 m/s, 167° - -
1788044223 23.89° C 60% 1021 hPa 0 mm 1.34 m/s, 210° - -
1788043923 23.89° C 60% 1021 hPa 0 mm 3.58 m/s, 106° - -
1788043623 23.89° C 62% 1021 hPa 0 mm 6.26 m/s, 124° - -
1788043323 22.78° C 63% 1021 hPa 0 mm 6.71 m/s, 196° - -
1788043023 22.22° C 63% 1021 hPa 0 mm 8.05 m/s, 194° - -
1788042723 22.78° C 63% 1021 hPa 0 mm 4.47 m/s, 171° - -
1788042423 22.78° C 63% 1021 hPa 0 mm 5.81 m/s, 166° - -
1788042122 22.78° C 63% 1021 hPa 0 mm 4.02 m/s, 270° - -
1788041822 22.22° C 64% 1021 hPa 0 mm 6.71 m/s, 253° - -
1788041522 22.22° C 64% 1021 hPa 0 mm 4.92 m/s, 350° - -
1788041223 22.78° C 64% 1021 hPa 0 mm 5.36 m/s, 193° - -
1788040922 22.78° C 63% 1021 hPa 0 mm 3.58 m/s, 207° - -
1788040622 23.33° C 61% 1021 hPa 0 mm 4.92 m/s, 159° - -
1788040322 24.44° C 60% 1021 hPa 0 mm 0.89 m/s, 249° - -
1788040022 24.44° C 59% 1021 hPa 0 mm 4.02 m/s, 137° - -
1788039722 24.44° C 60% 1021 hPa 0 mm 2.24 m/s, 125° - -
1788039422 24.44° C 59% 1021.7 hPa 0 mm 0 m/s - -
1788039121 24.44° C 58% 1021.7 hPa 0 mm 0 m/s - -
1788038821 24.44° C 59% 1021.7 hPa 0 mm 0 m/s - -
1788038521 23.33° C 62% 1021.7 hPa 0 mm 3.13 m/s, 158° - -
1788038221 23.33° C 62% 1021.7 hPa 0 mm 8.05 m/s, 162° - -
1788037921 23.33° C 62% 1021.7 hPa 0 mm 6.26 m/s, 180° - -
1788037621 23.33° C 63% 1021.7 hPa 0 mm 4.92 m/s, 165° - -

* Rain latest hour (hover to see other rain measurements)
** Current wind speed in m/s (hover to see current wind gust speed)